Location: Chris' Backyard Observatory
(47.3045°N, 122.2839°W)
Time: 04:39:17
(UTC-07:00)

Daily predictions for brighter satellites

Satellite Brightness Start Highest point End
(mag) Time Altitude Azimuth Time Altitude Azimuth Time Altitude Azimuth
ATLAS 5 CENTAUR R/B 4.3 00:09:16 21° N 00:09:16 21° N 00:12:02 10° NNE
CZ-4C R/B 4.2 00:43:11 25° NNE 00:43:11 25° NNE 00:45:59 10° NE
ATLAS 3B R/B 4.1 00:59:29 33° NE 00:59:29 33° NE 01:03:03 10° NE
Cosmos 2297 Rocket 4.3 00:51:22 10° NNW 00:53:31 23° N 00:53:31 23° N
USA 215 4.4 00:51:28 10° ENE 00:57:25 39° N 01:03:22 10° WNW
Cosmos 2227 Rocket 4.4 01:16:42 10° NNW 01:18:16 19° NNW 01:18:16 19° NNW
CENTAUR R/B 4.1 02:30:30 28° ENE 02:30:30 28° ENE 02:34:21 10° NE
CZ-4C R/B 4.5 02:28:19 18° NW 02:30:11 21° NNW 02:35:04 10° NE
USA 215 4.1 02:33:27 10° E 02:39:38 46° NNE 02:45:49 10° NW
ATLAS 3B R/B 4.0 02:46:43 32° NW 02:47:23 33° NNW 02:53:42 10° NNE
Lacrosse 4 Rocket 4.5 02:48:11 10° N 02:50:04 13° NE 02:52:00 10° ENE
Cosmos 2322 Rocket 4.0 02:55:21 25° E 02:55:21 25° E 02:58:38 10° NE
SL-16 R/B 3.9 02:59:54 27° E 02:59:54 27° E 03:03:29 10° NE
Cosmos 1697 Rocket 3.9 03:09:28 37° N 03:09:28 37° N 03:13:01 10° NNE
CZ-2D R/B 3.3 03:09:09 10° NNE 03:13:23 38° ENE 03:13:23 38° ENE
Resurs 1-4 Rocket 3.4 03:10:12 10° NNE 03:14:01 37° ENE 03:14:01 37° ENE
NOSS 3-2 (A) 4.3 03:15:51 44° NNW 03:15:51 44° NNW 03:21:54 10° NE
COSMOS 2455 4.2 03:21:39 30° NNW 03:21:39 30° NNW 03:26:18 10° NNE
Cosmos 2360 Rocket 4.1 03:24:41 19° ESE 03:25:31 20° E 03:29:28 10° NE
Cosmos 1980 Rocket 3.0 03:27:24 47° N 03:27:24 47° N 03:31:29 10° NNE
SL-16 R/B 2.8 03:32:29 59° NNW 03:32:29 59° NNW 03:37:26 10° NNW
Cosmos 1709 Rocket 4.0 03:31:07 10° N 03:37:02 75° NE 03:37:02 75° NE
Cosmos 2263 Rocket 3.1 03:33:11 10° NNW 03:36:49 41° NNW 03:36:49 41° NNW
ATLAS 5 CENTAUR R/B 4.4 03:36:44 10° NNW 03:41:11 23° NNE 03:45:57 10° ENE
Cosmos 883 Rocket 4.4 03:52:42 78° NW 03:52:42 78° NW 03:58:40 10° N
MOZ.5/SAFIR/RUBIN 5/SL-8 4.4 04:01:27 51° NNE 04:01:27 51° NNE 04:05:05 10° N
Gblst 52 Del rocket 4.1 04:03:54 81° N 04:04:04 82° NNE 04:10:07 10° ESE
ADEOS 3.8 03:58:50 10° N 04:03:14 61° NNW 04:03:14 61° NNW
Okean O Rocket 3.9 04:03:37 10° NE 04:07:00 21° E 04:09:24 14° SE
Cosmos 1992 Rocket 4.5 04:10:51 49° NNW 04:10:51 49° NNW 04:15:12 10° NNE
ADEOS Rocket 2.6 04:07:51 10° NNE 04:13:29 85° WNW 04:13:41 82° SW
CENTAUR R/B 2.7 04:17:40 53° WNW 04:18:38 58° NW 04:25:41 10° NE
Cosmos 1975 3.9 04:17:32 10° N 04:21:27 43° ENE 04:22:25 36° ESE
USA 215 3.2 04:15:44 10° SE 04:22:20 89° SW 04:28:56 10° NW
COBE Rocket 3.8 04:17:34 10° NNE 04:22:43 89° W 04:23:00 81° SSW
Cosmos 1455 Rocket 3.7 04:19:00 10° N 04:23:20 53° ENE 04:24:52 35° SE
Cosmos 2184 Rocket 4.0 04:20:07 10° N 04:26:21 78° E 04:31:55 14° SSE
Lacrosse 4 Rocket 1.6 04:25:25 10° NNW 04:29:34 68° NE 04:33:49 10° SE
ARIANE 5 R/B 3.0 04:25:21 10° N 04:29:48 45° NW 04:29:48 45° NW
Cosmos 1975 Rocket 3.3 04:32:54 58° NNW 04:32:54 58° NNW 04:36:32 10° N
Cosmos 2322 Rocket 2.4 04:37:10 50° WNW 04:37:43 52° WNW 04:43:12 10° NNE
SL-16 R/B 2.5 04:41:46 47° W 04:42:31 49° NW 04:48:02 10° NNE
Genesis I 3.8 04:47:29 45° NNW 04:47:29 45° NNW 04:50:57 10° NNE
COSMOS 2428 3.8 04:45:14 16° S 04:49:26 42° ESE 04:54:45 10° NE
Cosmos 2219 Rocket 4.1 04:47:27 10° SSE 04:51:55 25° ESE 04:56:25 10° NE
Cosmos 1536 Rocket 4.0 04:49:40 26° SSE 04:52:02 61° E 04:56:28 10° NNE
CZ-2D R/B 3.8 04:49:52 10° N 04:54:11 49° WNW 04:54:13 49° WNW
CZ-2D R/B 3.0 04:49:27 10° N 04:54:18 33° WNW 04:54:44 32° WNW
Resurs 1-4 Rocket 3.0 04:50:20 10° N 04:54:55 31° WNW 04:55:06 30° WNW
Cosmos 1844 Rocket 2.9 04:50:59 10° NNW 04:56:35 69° ENE 05:02:07 10° SE
Cosmos 2154 Rocket 4.1 04:53:58 10° N 05:00:11 76° E 05:06:23 10° SSE
MOS 1 Rocket 3.1 04:55:59 10° N 05:00:48 77° WNW 05:02:23 40° SSW
Cosmos 1812 3.1 05:02:50 45° WNW 05:02:50 45° WNW 05:06:13 10° N
PSLV R/B 4.3 04:59:11 10° NNE 05:03:25 52° E 05:07:22 12° S
Tiangong 2 3.1 05:05:01 19° SSE 05:05:01 19° SSE 05:06:21 10° SE
Cosmos 1777 Rocket 4.3 04:59:16 10° NNW 05:04:18 44° WSW 05:05:58 33° SSW
Cosmos 2360 Rocket 2.1 05:06:28 35° SW 05:08:55 70° WNW 05:14:34 10° NNE
Cosmos 2278 Rocket 3.5 05:04:10 10° NNW 05:09:33 41° NE 05:14:54 10° SE
Cosmos 1980 Rocket 4.0 05:09:10 15° WNW 05:10:53 17° NW 05:14:27 10° N
Cosmos 1340 2.5 05:10:57 50° SW 05:11:46 70° W 05:15:35 10° N
Cosmos 1238 Rocket 3.0 05:12:55 20° SSE 05:14:38 46° E 05:17:32 10° NNE
SL-16 R/B 4.2 05:17:34 14° WNW 05:17:34 14° WNW 05:19:18 10° NW
CZ-4B R/B 2.5 05:12:26 10° NNE 05:16:02 85° WNW 05:17:34 33° SSW
Cosmos 1666 3.5 05:13:58 10° N 05:17:47 52° ENE 05:21:34 10° SSE
Cosmos 2237 Rocket 4.3 05:13:56 10° SSE 05:18:28 25° ESE 05:23:02 10° NE
Cosmos 1610 Rocket 4.5 05:13:31 10° NNW 05:19:41 62° W 05:25:53 10° S
ADEOS II 2.1 05:15:28 10° NNE 05:20:46 86° ESE 05:26:02 10° SSW
Cosmos 2263 Rocket 4.2 05:18:18 10° WNW 05:18:26 10° WNW 05:18:26 10° WNW
UNKNOWN OBJECT B 4.5 05:19:51 10° NNW 05:21:50 18° NW 05:21:50 18° NW
Cosmos 1743 2.6 05:19:01 10° N 05:22:54 83° W 05:26:45 10° S
Nadezhda 1 Rocket 3.9 05:20:46 16° SSW 05:25:42 63° WNW 05:31:45 10° N
ATLAS 5 CENTAUR R/B 2.8 05:21:04 10° NW 05:26:54 67° NE 05:33:18 10° SE
Cosmos 1544 Rocket 4.4 05:23:18 10° NNW 05:27:09 29° W 05:27:24 29° W
PAYLOAD B 4.2 05:22:10 10° NNE 05:27:48 82° WNW 05:33:24 10° SSW
Meteor 1-31 Rocket 4.2 05:25:12 10° NNE 05:28:47 37° E 05:32:20 10° SSE
CZ-2C R/B 3.7 05:31:27 10° S 05:35:57 55° W 05:40:24 10° NNW
Cosmos 2333 Rocket 3.3 05:31:55 10° S 05:37:19 46° ESE 05:42:48 10° NE
SL-8 R/B 3.6 05:35:11 20° WNW 05:38:30 87° SSW 05:43:18 10° ESE
EO 1 Del DPAF 3.7 05:34:58 10° S 05:38:36 39° W 05:42:16 10° NNW
Cosmos 2341 Rocket 3.9 05:33:16 10° NNW 05:39:32 76° W 05:45:44 10° S
Okean O Rocket 2.0 05:39:21 10° N 05:43:35 45° WNW 05:46:52 16° SW
Cosmos 2322 4.1 05:41:18 20° WSW 05:45:00 45° NW 05:50:31 10° NNE
Cosmos 2218 Rocket 4.5 05:40:45 10° N 05:47:09 68° ENE 05:53:28 10° SSE
Cosmos 2208 Rocket 4.1 05:42:09 12° SSW 05:47:09 67° WNW 05:52:36 10° NNE
Okean 1 4.5 05:47:30 21° WSW 05:48:52 25° WNW 05:52:18 10° NNW
ERBS 4.4 05:46:44 10° NW 05:49:45 26° NNE 05:52:46 10° E
Meteor PRIRODA 3.6 05:47:27 10° NNE 05:51:15 85° W 05:55:00 10° SSW
COSMO-SKYMED 1 3.7 05:49:31 10° SE 05:53:42 49° ENE 05:57:54 10° N
Cosmos 1867 3.5 05:48:37 10° NW 05:54:06 82° SW 05:59:33 10° SSE
Cosmos 1726 Rocket 4.3 05:51:21 10° N 05:55:45 58° ENE 06:00:10 10° SSE
Okean-O 2.9 05:51:18 10° NNE 05:55:46 73° ESE 06:00:10 10° S
Iridium 2 3.9 05:52:11 10° N 05:56:01 74° E 05:59:51 10° S
Cosmos 1975 4.3 05:54:57 10° NW 05:57:36 17° W 05:58:11 16° W
ADEOS Rocket 4.5 05:55:05 10° NNW 05:58:10 15° NW 06:00:39 11° W
Cosmos 1025 Rocket 3.1 05:56:04 10° S 06:00:27 86° E 06:04:53 10° N
Meteor 1-13 Rocket 4.3 05:55:32 10° SSW 06:00:58 57° WNW 06:06:31 10° N
Cosmos 1844 3.9 05:56:27 10° NW 06:02:03 52° WSW 06:07:32 10° S
Cosmos 2333 4.3 05:58:28 10° SW 06:04:04 64° WNW 06:09:47 10° NNE
USA 215 4.0 06:00:15 10° S 06:05:52 30° SW 06:11:30 10° WNW
Cosmos 1892 Rocket 4.5 06:03:16 10° S 06:07:29 53° E 06:11:45 10° NNE
Lacrosse 4 Rocket 3.0 06:05:44 11° WNW 06:07:48 14° WSW 06:10:06 10° SW
CZ-4B R/B 3.7 06:03:06 10° N 06:08:25 44° WNW 06:13:40 10° SW
ERS-2 2.2 06:06:30 10° N 06:10:11 62° WNW 06:13:50 10° SSW
CENTAUR R/B 4.2 06:05:26 10° WNW 06:10:55 26° NNW 06:16:56 10° NE
CZ-4C R/B 3.9 06:04:52 10° NW 06:11:25 46° NE 06:18:46 10° ESE
USA 116 4.4 06:09:41 10° S 06:13:46 44° W 06:18:25 10° NNW
SL-16 R/B 4.3 06:09:19 10° SSE 06:14:09 30° ESE 06:19:03 10° NE
Thor Agena Rocket 3.5 06:09:13 10° S 06:14:14 67° WSW 06:19:18 10° NNW
NOSS 0 Rocket 4.2 06:08:39 10° SSW 06:14:49 77° ESE 06:20:59 10° NNE
Cosmos 2150 Rocket 4.1 06:10:52 10° NNW 06:16:03 61° WSW 06:21:20 10° S
Cosmos 2285 Rocket 4.1 06:10:01 10° SSW 06:16:28 86° WNW 06:22:57 10° NNE
USA 229 DEB 3.8 06:10:33 10° SW 06:17:24 85° SE 06:24:25 10° NE
USA 229 3.8 06:10:39 10° SW 06:17:30 85° SE 06:24:30 10° NE
Timation 1 Rocket 4.4 06:13:34 10° NNW 06:19:37 88° ENE 06:25:37 10° SSE
Cosmos 990 Rocket 3.9 06:15:28 10° NNW 06:20:40 72° WSW 06:25:47 10° SSE
Cosmos 2322 Rocket 4.2 06:20:34 10° WNW 06:23:10 13° NW 06:25:46 10° N
Cosmos 1959 Rocket 4.4 06:18:00 10° NNW 06:24:03 67° W 06:30:07 10° S
Cosmos 1898 Rocket 3.9 06:19:42 10° NW 06:24:33 40° WSW 06:29:20 10° S
Cosmos 1980 3.8 06:19:13 10° SSW 06:24:52 85° ESE 06:30:33 10° NNE
BREEZE-M DEB (TANK) 4.5 06:21:14 10° SW 06:25:48 76° SSE 06:49:34 10° ENE
SL-16 R/B 4.2 06:25:33 10° WNW 06:28:05 13° NNW 06:30:38 10° N
Cosmos 468 Rocket 4.0 06:23:27 10° SSW 06:28:36 66° WNW 06:33:51 10° NNE
NOSS 3-1 (C) 4.4 06:27:22 10° SSW 06:32:57 50° ESE 06:39:13 10° NE
Cosmos 1125 Rocket 4.4 06:27:50 10° NNW 06:33:02 56° ENE 06:38:14 10° SE
Cosmos 405 3.3 06:29:52 10° N 06:33:26 75° ENE 06:36:58 10° SSE
ATLAS 3B R/B 4.4 06:27:34 10° NNW 06:33:32 29° NNE 06:39:14 10° E
COSMOS 2428 3.4 06:28:32 10° WSW 06:33:46 37° NW 06:39:03 10° NNE
Meteor 1-28 Rocket 3.2 06:31:15 10° S 06:35:04 78° WSW 06:38:55 10° NNW
Cosmos 2219 Rocket 2.4 06:30:01 10° SW 06:35:30 55° WNW 06:41:01 10° NNE
Ariane Rocket 4.3 06:31:06 10° NNE 06:35:58 46° E 06:40:49 10° S
Meteor 1-23 Rocket 4.4 06:30:44 10° SSW 06:36:25 56° WNW 06:42:07 10° N
Cosmos 2366 rocket 4.1 06:30:14 10° NNW 06:36:30 62° W 06:42:45 10° S
